User: anonymous   Login
Location: Innsbruck
(47.2657°N, 11.3914°E)
Time: 18:21:17
(UTC+01:00)
Language:

FALCONSAT 3 - Orbit

View from above orbital plane
View from above orbital plane
View from above satellite
View from above satellite

Ground track
Ground track

The orbit data is extracted from the following two-line orbital elements,

1 30776U 07006E   21336.39675176  .00013937  00000-0  30537-3 0  9999
2 30776  35.4332  99.2076 0002466   1.2247 358.8487 15.43268387819044
Epoch (UTC): 02 December 2021 09:31:19
Eccentricity: 0.0002466
inclination: 35.4332°
perigee height: 435 km
apogee height: 438 km
right ascension of ascending node: 99.2076°
argument of perigee: 1.2247°
revolutions per day: 15.43268387
mean anomaly at epoch: 358.8487°
orbit number at epoch: 81904

The dashed part of the orbit path shows where the satellite is in the earth's shadow,  

DLR